RAJA401 WIII-WICC

Flight info

Callsign RAJA401
Flight time 0h 28m
Altitude 19000
Route PW
Aircraft A400/H-SDE2E3FGHIJ4J5M1RWXY/LB1D1

Departure

Time 2026-04-26 01:13
Airport Soekarno-Hatta International Airport (WIII)

Arrival

Time 2026-04-26 01:41
Airport Husein Sastranegara International Airport (WICC)
Time Latitude Longitude Altitude Speed Heading
2026-04-26 00:22 -6.12795 106.66190 47 ft 0 kts 69°
2026-04-26 00:54 -6.12797 106.66186 47 ft 3 kts 70°
2026-04-26 00:55 -6.12806 106.66160 44 ft 4 kts 73°
2026-04-26 00:55 -6.12813 106.66134 40 ft 4 kts 79°
2026-04-26 00:55 -6.12815 106.66107 40 ft 4 kts 99°
2026-04-26 00:55 -6.12806 106.66088 41 ft 2 kts 157°
2026-04-26 00:56 -6.12805 106.66087 41 ft 0 kts 158°
2026-04-26 01:02 -6.12806 106.66088 47 ft 0 kts 158°
2026-04-26 01:03 -6.12811 106.66090 45 ft 1 kts 158°
2026-04-26 01:03 -6.12820 106.66093 46 ft 2 kts 158°
2026-04-26 01:03 -6.12832 106.66098 47 ft 2 kts 158°
2026-04-26 01:03 -6.12839 106.66101 47 ft 0 kts 157°
2026-04-26 01:04 -6.12842 106.66103 47 ft 1 kts 157°
2026-04-26 01:04 -6.12850 106.66106 46 ft 1 kts 157°
2026-04-26 01:04 -6.12861 106.66110 47 ft 2 kts 157°
2026-04-26 01:05 -6.12874 106.66116 47 ft 2 kts 157°
2026-04-26 01:05 -6.12889 106.66122 47 ft 2 kts 158°
2026-04-26 01:05 -6.12905 106.66129 47 ft 3 kts 158°
2026-04-26 01:05 -6.12936 106.66146 46 ft 1 kts 152°
2026-04-26 01:06 -6.12950 106.66150 47 ft 3 kts 165°
2026-04-26 01:06 -6.12986 106.66159 47 ft 7 kts 166°
2026-04-26 01:06 -6.13039 106.66179 47 ft 10 kts 156°
2026-04-26 01:06 -6.13109 106.66209 47 ft 12 kts 157°
2026-04-26 01:07 -6.13154 106.66225 44 ft 0 kts 159°
2026-04-26 01:07 -6.13160 106.66228 45 ft 3 kts 159°
2026-04-26 01:07 -6.13197 106.66242 47 ft 8 kts 159°
2026-04-26 01:07 -6.13251 106.66272 47 ft 10 kts 137°
2026-04-26 01:08 -6.13269 106.66330 48 ft 8 kts 76°
2026-04-26 01:08 -6.13243 106.66395 48 ft 12 kts 67°
2026-04-26 01:08 -6.13209 106.66482 44 ft 15 kts 69°
2026-04-26 01:08 -6.13167 106.66588 48 ft 17 kts 69°
2026-04-26 01:09 -6.13120 106.66703 46 ft 18 kts 67°
2026-04-26 01:09 -6.13071 106.66826 48 ft 19 kts 68°
2026-04-26 01:09 -6.13019 106.66954 45 ft 20 kts 68°
2026-04-26 01:09 -6.12966 106.67086 48 ft 21 kts 67°
2026-04-26 01:10 -6.12913 106.67221 47 ft 21 kts 68°
2026-04-26 01:10 -6.12868 106.67340 47 ft 14 kts 82°
2026-04-26 01:10 -6.12870 106.67366 48 ft 0 kts 100°
2026-04-26 01:11 -6.12873 106.67379 48 ft 7 kts 107°
2026-04-26 01:11 -6.12926 106.67417 48 ft 12 kts 174°
2026-04-26 01:11 -6.13009 106.67419 48 ft 9 kts 177°
2026-04-26 01:12 -6.13048 106.67374 48 ft 10 kts 242°
2026-04-26 01:12 -6.13053 106.67360 48 ft 2 kts 252°
2026-04-26 01:12 -6.13064 106.67328 48 ft 7 kts 250°
2026-04-26 01:12 -6.13111 106.67209 45 ft 55 kts 247°
2026-04-26 01:13 -6.13421 106.66420 111 ft 172 kts 247°
2026-04-26 01:13 -6.13900 106.65175 721 ft 207 kts 249°
2026-04-26 01:13 -6.14442 106.63729 1431 ft 232 kts 249°
2026-04-26 01:13 -6.14948 106.62365 1987 ft 189 kts 248°
2026-04-26 01:14 -6.15498 106.61046 2406 ft 229 kts 246°
2026-04-26 01:14 -6.16149 106.59498 3564 ft 245 kts 248°
2026-04-26 01:14 -6.16591 106.58428 4624 ft 245 kts 248°
2026-04-26 01:14 -6.17241 106.56832 6136 ft 249 kts 249°
2026-04-26 01:15 -6.17898 106.55204 7559 ft 254 kts 249°
2026-04-26 01:15 -6.18988 106.53087 9475 ft 263 kts 231°
2026-04-26 01:15 -6.19891 106.52233 10406 ft 266 kts 213°
2026-04-26 01:15 -6.21579 106.51584 11783 ft 265 kts 185°
2026-04-26 01:16 -6.23999 106.51947 13709 ft 267 kts 157°
2026-04-26 01:16 -6.25098 106.52496 14553 ft 268 kts 143°
2026-04-26 01:16 -6.26391 106.53824 15844 ft 269 kts 119°
2026-04-26 01:16 -6.26975 106.55606 17176 ft 272 kts 94°
2026-04-26 01:17 -6.26704 106.57493 18182 ft 279 kts 68°
2026-04-26 01:17 -6.25726 106.59202 18671 ft 285 kts 56°
2026-04-26 01:17 -6.24546 106.60818 18871 ft 288 kts 54°
2026-04-26 01:17 -6.23338 106.62430 18910 ft 289 kts 54°
2026-04-26 01:18 -6.22139 106.64050 18911 ft 289 kts 54°
2026-04-26 01:18 -6.20949 106.65681 18912 ft 289 kts 55°
2026-04-26 01:18 -6.19780 106.67322 18913 ft 289 kts 58°
2026-04-26 01:18 -6.18938 106.69135 18907 ft 287 kts 76°
2026-04-26 01:19 -6.18864 106.71123 18908 ft 287 kts 100°
2026-04-26 01:19 -6.19517 106.73020 18914 ft 289 kts 112°
2026-04-26 01:19 -6.20389 106.74844 18908 ft 290 kts 115°
2026-04-26 01:19 -6.21297 106.76659 18917 ft 290 kts 115°
2026-04-26 01:20 -6.22200 106.78472 18916 ft 290 kts 115°
2026-04-26 01:20 -6.23097 106.80291 18902 ft 290 kts 115°
2026-04-26 01:20 -6.23991 106.82115 18907 ft 291 kts 114°
2026-04-26 01:20 -6.24883 106.83942 18903 ft 296 kts 114°
2026-04-26 01:21 -6.25819 106.85867 18918 ft 316 kts 114°
2026-04-26 01:21 -6.26800 106.87884 18913 ft 325 kts 115°
2026-04-26 01:21 -6.27837 106.89921 18910 ft 329 kts 116°
2026-04-26 01:21 -6.28902 106.91959 18917 ft 330 kts 116°
2026-04-26 01:22 -6.29974 106.94001 18909 ft 330 kts 116°
2026-04-26 01:22 -6.31045 106.96043 18908 ft 331 kts 116°
2026-04-26 01:22 -6.32119 106.98090 18918 ft 334 kts 116°
2026-04-26 01:22 -6.33202 107.00156 18657 ft 330 kts 116°
2026-04-26 01:23 -6.34273 107.02200 17902 ft 332 kts 116°
2026-04-26 01:23 -6.35352 107.04260 17105 ft 333 kts 116°
2026-04-26 01:23 -6.36428 107.06312 16404 ft 331 kts 116°
2026-04-26 01:23 -6.37496 107.08350 15745 ft 328 kts 116°
2026-04-26 01:24 -6.38553 107.10368 15094 ft 325 kts 116°
2026-04-26 01:24 -6.39598 107.12364 14465 ft 322 kts 116°
2026-04-26 01:24 -6.40625 107.14324 13887 ft 319 kts 116°
2026-04-26 01:24 -6.41653 107.16289 13603 ft 317 kts 116°
2026-04-26 01:25 -6.42681 107.18253 13350 ft 317 kts 116°
2026-04-26 01:25 -6.43707 107.20213 13093 ft 316 kts 116°
2026-04-26 01:25 -6.44731 107.22169 12846 ft 315 kts 116°
2026-04-26 01:25 -6.45749 107.24114 12599 ft 314 kts 116°
2026-04-26 01:26 -6.46766 107.26059 12358 ft 313 kts 116°
2026-04-26 01:26 -6.47779 107.27994 12022 ft 312 kts 116°
2026-04-26 01:26 -6.48786 107.29919 11661 ft 311 kts 116°
2026-04-26 01:26 -6.49790 107.31839 11239 ft 309 kts 116°
2026-04-26 01:27 -6.50785 107.33742 10800 ft 307 kts 116°
2026-04-26 01:27 -6.51774 107.35632 10447 ft 300 kts 116°
2026-04-26 01:27 -6.52726 107.37450 10223 ft 292 kts 116°
2026-04-26 01:27 -6.53670 107.39255 9801 ft 291 kts 116°
2026-04-26 01:28 -6.54614 107.41045 9363 ft 289 kts 117°
2026-04-26 01:28 -6.55664 107.42760 8955 ft 288 kts 122°
2026-04-26 01:28 -6.56902 107.44336 8542 ft 287 kts 130°
2026-04-26 01:28 -6.58528 107.45498 8185 ft 291 kts 155°
2026-04-26 01:29 -6.60525 107.45814 8053 ft 295 kts 181°
2026-04-26 01:29 -6.62574 107.45638 8046 ft 295 kts 182°
2026-04-26 01:29 -6.64623 107.45503 8045 ft 295 kts 182°
2026-04-26 01:29 -6.66671 107.45381 8043 ft 295 kts 181°
2026-04-26 01:30 -6.68718 107.45256 8067 ft 295 kts 182°
2026-04-26 01:30 -6.70768 107.45129 8065 ft 295 kts 181°
2026-04-26 01:30 -6.72816 107.44998 8071 ft 295 kts 181°
2026-04-26 01:30 -6.74833 107.45209 8068 ft 291 kts 163°
2026-04-26 01:31 -6.76751 107.45859 8071 ft 290 kts 158°
2026-04-26 01:31 -6.78633 107.46587 8059 ft 289 kts 156°
2026-04-26 01:31 -6.80515 107.47320 8070 ft 291 kts 156°
2026-04-26 01:31 -6.82402 107.48057 8095 ft 291 kts 156°
2026-04-26 01:32 -6.84283 107.48782 8008 ft 285 kts 157°
2026-04-26 01:32 -6.86122 107.49489 7464 ft 284 kts 156°
2026-04-26 01:32 -6.87965 107.50210 6915 ft 284 kts 156°
2026-04-26 01:32 -6.89407 107.50762 6488 ft 284 kts 157°
2026-04-26 01:33 -6.91158 107.51649 5913 ft 281 kts 143°
2026-04-26 01:33 -6.92534 107.53049 5283 ft 281 kts 124°
2026-04-26 01:33 -6.93579 107.54678 5142 ft 275 kts 118°
2026-04-26 01:33 -6.94462 107.56366 5018 ft 271 kts 114°
2026-04-26 01:34 -6.95258 107.58084 4884 ft 272 kts 113°
2026-04-26 01:34 -6.96025 107.59827 4767 ft 272 kts 111°
2026-04-26 01:34 -6.96780 107.61558 4644 ft 269 kts 112°
2026-04-26 01:34 -6.97541 107.63283 4518 ft 269 kts 112°
2026-04-26 01:35 -6.98313 107.65004 4381 ft 270 kts 113°
2026-04-26 01:35 -6.99095 107.66724 4083 ft 271 kts 114°
2026-04-26 01:35 -6.99890 107.68455 3713 ft 275 kts 114°
2026-04-26 01:35 -7.00496 107.70337 3845 ft 297 kts 100°
2026-04-26 01:36 -7.00540 107.72463 4084 ft 307 kts 81°
2026-04-26 01:36 -6.99793 107.74400 4085 ft 289 kts 56°
2026-04-26 01:36 -6.98413 107.75750 4072 ft 272 kts 33°
2026-04-26 01:37 -6.94898 107.76432 4015 ft 246 kts 339°
2026-04-26 01:37 -6.93708 107.75542 4608 ft 198 kts 283°
2026-04-26 01:37 -6.93760 107.74238 4482 ft 195 kts 243°
2026-04-26 01:37 -6.94319 107.72940 3944 ft 207 kts 261°
2026-04-26 01:38 -6.94177 107.71550 3696 ft 190 kts 284°
2026-04-26 01:38 -6.93920 107.70350 3746 ft 164 kts 278°
2026-04-26 01:38 -6.93815 107.69261 3654 ft 152 kts 279°
2026-04-26 01:38 -6.93631 107.68240 3463 ft 146 kts 284°
2026-04-26 01:39 -6.93405 107.67277 3269 ft 139 kts 282°
2026-04-26 01:39 -6.93207 107.66299 3087 ft 158 kts 283°
2026-04-26 01:39 -6.92895 107.65172 3405 ft 170 kts 286°
2026-04-26 01:39 -6.92582 107.64048 3289 ft 164 kts 288°
2026-04-26 01:40 -6.92135 107.63016 3152 ft 159 kts 294°
2026-04-26 01:40 -6.91699 107.61988 3118 ft 158 kts 295°
2026-04-26 01:40 -6.91268 107.61017 3157 ft 145 kts 292°
2026-04-26 01:40 -6.90933 107.60098 2850 ft 133 kts 290°
2026-04-26 01:41 -6.90628 107.59244 2607 ft 129 kts 290°
2026-04-26 01:41 -6.90337 107.58392 2447 ft 125 kts 291°
2026-04-26 01:41 -6.90103 107.57739 2435 ft 77 kts 290°
2026-04-26 01:41 -6.89974 107.57357 2433 ft 44 kts 288°
2026-04-26 01:42 -6.89901 107.57124 2432 ft 31 kts 292°
2026-04-26 01:42 -6.89853 107.56964 2428 ft 15 kts 259°
2026-04-26 01:42 -6.89910 107.56933 2434 ft 9 kts 198°
2026-04-26 01:42 -6.89961 107.56915 2429 ft 0 kts 198°
2026-04-26 01:43 -6.89959 107.56903 2431 ft 1 kts 301°
2026-04-26 01:44 -6.89935 107.56908 2434 ft 7 kts 21°
2026-04-26 01:44 -6.89867 107.56917 2430 ft 12 kts 343°
2026-04-26 01:44 -6.89802 107.56842 2433 ft 18 kts 295°
2026-04-26 01:44 -6.89779 107.56721 2428 ft 16 kts 269°
2026-04-26 01:45 -6.89761 107.56703 2434 ft 2 kts 24°
2026-04-26 01:45 -6.89753 107.56715 2431 ft 2 kts 85°
2026-04-26 01:45 -6.89820 107.56931 2436 ft 98 kts 114°
2026-04-26 01:45 -6.90174 107.57957 2535 ft 193 kts 108°
2026-04-26 01:46 -6.90645 107.59352 3102 ft 225 kts 109°
2026-04-26 01:46 -6.91090 107.60934 3850 ft 246 kts 94°
2026-04-26 01:46 -6.90493 107.62526 4911 ft 252 kts 44°
2026-04-26 01:46 -6.88893 107.63273 6133 ft 267 kts 19°
2026-04-26 01:47 -6.87066 107.63895 6923 ft 286 kts 20°
2026-04-26 01:47 -6.85161 107.64613 7767 ft 300 kts 22°
2026-04-26 01:47 -6.83127 107.65295 8505 ft 316 kts 17°
2026-04-26 01:47 -6.80953 107.65793 9298 ft 326 kts 12°
2026-04-26 01:48 -6.78689 107.66213 10062 ft 335 kts 13°
2026-04-26 01:48 -6.76393 107.66722 10762 ft 341 kts 15°
2026-04-26 01:48 -6.74083 107.67358 11359 ft 350 kts 20°
2026-04-26 01:48 -6.71951 107.68655 11254 ft 368 kts 43°
2026-04-26 01:49 -6.70484 107.70644 10566 ft 349 kts 63°
2026-04-26 01:49 -6.69800 107.72101 9855 ft 346 kts 69°
2026-04-26 01:49 -6.69118 107.74402 8942 ft 332 kts 77°
2026-04-26 01:49 -6.68902 107.76641 8232 ft 320 kts 66°
2026-04-26 01:50 -6.67367 107.78455 7423 ft 348 kts 48°
2026-04-26 01:50 -6.66146 107.80377 7316 ft 311 kts 58°
2026-04-26 01:50 -6.64769 107.81990 6720 ft 298 kts 46°
2026-04-26 01:50 -6.63550 107.84315 6395 ft 275 kts 73°
2026-04-26 01:51 -6.63521 107.85601 6201 ft 268 kts 94°
2026-04-26 01:51 -6.63518 107.87422 5983 ft 254 kts 84°
2026-04-26 01:51 -6.63363 107.89128 6014 ft 237 kts 84°
2026-04-26 01:51 -6.63334 107.90780 5567 ft 242 kts 84°
2026-04-26 01:52 -6.63155 107.92514 4843 ft 247 kts 67°
2026-04-26 01:52 -6.62666 107.94114 4114 ft 248 kts 86°
2026-04-26 01:52 -6.63000 107.95776 3728 ft 248 kts 116°
2026-04-26 01:52 -6.63692 107.97318 3236 ft 242 kts 102°
2026-04-26 01:53 -6.63667 107.98940 3167 ft 230 kts 79°
2026-04-26 01:53 -6.63540 108.00542 3011 ft 227 kts 80°
2026-04-26 01:53 -6.63751 108.02020 3051 ft 206 kts 106°
2026-04-26 01:53 -6.64176 108.03382 2798 ft 201 kts 106°
2026-04-26 01:54 -6.64579 108.04707 2638 ft 194 kts 97°
2026-04-26 01:54 -6.64378 108.06040 2246 ft 197 kts 65°
2026-04-26 01:54 -6.63771 108.07278 2004 ft 195 kts 63°
2026-04-26 01:54 -6.63360 108.08544 1804 ft 190 kts 72°
2026-04-26 01:55 -6.63049 108.09865 1439 ft 197 kts 75°
2026-04-26 01:55 -6.62584 108.11146 1219 ft 189 kts 62°
2026-04-26 01:55 -6.62067 108.12309 1105 ft 168 kts 80°
2026-04-26 01:55 -6.62093 108.13397 935 ft 148 kts 103°
2026-04-26 01:56 -6.62419 108.14285 612 ft 124 kts 117°
2026-04-26 01:56 -6.63013 108.15175 891 ft 352 kts 116°
2026-04-26 01:56 -6.63926 108.16584 3514 ft 184 kts 128°
2026-04-26 01:56 -6.64947 108.17239 3026 ft 187 kts 173°
2026-04-26 01:57 -6.66285 108.17499 2193 ft 204 kts 156°
2026-04-26 01:57 -6.67121 108.18467 1578 ft 189 kts 59°
2026-04-26 01:57 -6.66520 108.19310 751 ft 372 kts 47°
2026-04-26 01:57 -6.64806 108.20818 689 ft 297 kts 13°
2026-04-26 01:58 -6.63258 108.20194 609 ft 234 kts 293°
2026-04-26 01:58 -6.62705 108.18855 210 ft 189 kts 302°
2026-04-26 01:58 -6.62298 108.18190 94 ft 1 kts 300°
2026-04-26 01:58 -6.62278 108.18157 94 ft 26 kts 301°
2026-04-26 01:59 -6.62036 108.17880 93 ft 79 kts 319°
2026-04-26 01:59 -6.61373 108.17313 251 ft 163 kts 317°
2026-04-26 01:59 -6.60553 108.16323 906 ft 203 kts 287°
2026-04-26 01:59 -6.60798 108.14931 1705 ft 216 kts 229°
2026-04-26 02:00 -6.62139 108.14412 1759 ft 216 kts 166°
2026-04-26 02:00 -6.63293 108.15291 458 ft 224 kts 134°
2026-04-26 02:00 -6.64400 108.16278 106 ft 192 kts 144°
2026-04-26 02:00 -6.65428 108.16804 140 ft 141 kts 182°
2026-04-26 02:01 -6.66118 108.16802 100 ft 14 kts
2026-04-26 02:01 -6.66116 108.16715 99 ft 11 kts 355°